User: anonymous   Login
Location: Unspecified
(0.0000°N, 0.0000°E)
Time: 15:15:55
(UTC+00:00)
Language:

SSETI-EXPRESS DEB - Orbit

View from above orbital plane
View from above orbital plane
View from above satellite
View from above satellite

Ground track
Ground track

The orbit data is extracted from the following two-line orbital elements,

1 28897U 05043H   19078.35009580 +.00000128 +00000-0 +33080-4 0  9990
2 28897 097.9395 224.8613 0014683 274.4807 115.5702 14.64093617706272
Epoch (UTC): 19 March 2019 08:24:08
Eccentricity: 0.0014683
inclination: 97.9395°
perigee height: 669 km
apogee height: 690 km
right ascension of ascending node: 224.8613°
argument of perigee: 274.4807°
revolutions per day: 14.64093617
mean anomaly at epoch: 115.5702°
orbit number at epoch: 70627

The dashed part of the orbit path shows where the satellite is in the earth's shadow,  

DLR